• In Uzbekistan
  • List of Countries
  • For 7 days
  • Water Temperature
  • Weather Map
  • Weather Widgets
  • user-avatar
    Login

    Hourly Weather Agullik

    Today, 3 April, Friday

    Time Temperature Precipitation Wind Pressure Humidity
    00:00 +14°C° 0 mm 2 mps 718 mmHg 52%
    01:00 +14°C° 0 mm 2 mps 718 mmHg 52%
    02:00 +13°C° 0 mm 2 mps 718 mmHg 51%
    03:00 +13°C° 0 mm 2 mps 718 mmHg 50%
    04:00 +13°C° 0 mm 2 mps 718 mmHg 49%
    05:00 +12°C° 0 mm 2 mps 718 mmHg 48%
    06:00 +13°C° 0 mm 2 mps 718 mmHg 44%
    07:00 +14°C° 0 mm 2 mps 718 mmHg 40%
    08:00 +15°C° 0 mm 2 mps 718 mmHg 36%
    09:00 +17°C° 0 mm 2 mps 718 mmHg 32%
    10:00 +19°C° 0 mm 2 mps 718 mmHg 28%
    11:00 +22°C° 0 mm 1 mps 718 mmHg 24%
    12:00 +23°C° 0 mm 1 mps 718 mmHg 22%
    13:00 +24°C° 0 mm 1 mps 717 mmHg 20%
    14:00 +25°C° 0 mm 1 mps 717 mmHg 18%
    15:00 +25°C° 0 mm 1 mps 717 mmHg 18%
    16:00 +25°C° 0 mm 1 mps 717 mmHg 17%
    17:00 +25°C° 0 mm 1 mps 717 mmHg 17%
    18:00 +24°C° 0 mm 1 mps 718 mmHg 19%
    19:00 +23°C° 0 mm 1 mps 718 mmHg 21%
    20:00 +20°C° 0 mm 0 mps 719 mmHg 23%
    21:00 +21°C° 0 mm 1 mps 719 mmHg 26%
    22:00 +20°C° 0 mm 1 mps 719 mmHg 29%
    23:00 +18°C° 0 mm 2 mps 719 mmHg 32%

    Tomorrow, 4 April, Saturday

    Time Temperature Precipitation Wind Pressure Humidity
    00:00 +17°C° 0 mm 2 mps 718 mmHg 34%
    01:00 +17°C° 0 mm 2 mps 718 mmHg 36%
    02:00 +16°C° 0 mm 2 mps 718 mmHg 38%
    03:00 +16°C° 0 mm 2 mps 718 mmHg 37%
    04:00 +15°C° 0 mm 2 mps 718 mmHg 37%
    05:00 +15°C° 0 mm 2 mps 718 mmHg 37%
    06:00 +16°C° 0 mm 2 mps 718 mmHg 34%
    07:00 +17°C° 0 mm 2 mps 718 mmHg 30%
    08:00 +18°C° 0 mm 2 mps 718 mmHg 27%
    09:00 +20°C° 0 mm 2 mps 718 mmHg 24%
    10:00 +23°C° 0 mm 2 mps 718 mmHg 21%
    11:00 +25°C° 0 mm 2 mps 718 mmHg 17%
    12:00 +26°C° 0 mm 2 mps 717 mmHg 16%
    13:00 +27°C° 0 mm 2 mps 717 mmHg 15%
    14:00 +28°C° 0 mm 2 mps 716 mmHg 14%
    15:00 +28°C° 0 mm 2 mps 716 mmHg 14%
    16:00 +28°C° 0 mm 1 mps 716 mmHg 14%
    17:00 +28°C° 0 mm 1 mps 716 mmHg 14%
    18:00 +26°C° 0 mm 1 mps 716 mmHg 17%
    19:00 +25°C° 0 mm 1 mps 716 mmHg 20%
    20:00 +23°C° 0 mm 1 mps 716 mmHg 22%
    21:00 +22°C° 0 mm 1 mps 716 mmHg 25%
    22:00 +21°C° 0 mm 1 mps 716 mmHg 27%
    23:00 +20°C° 0 mm 2 mps 716 mmHg 30%

    Day after tomorrow, 5 April, Sunday

    Time Temperature Precipitation Wind Pressure Humidity
    00:00 +19°C° 0 mm 2 mps 716 mmHg 31%
    01:00 +19°C° 0 mm 2 mps 715 mmHg 32%
    02:00 +18°C° 0 mm 2 mps 715 mmHg 33%
    03:00 +18°C° 0 mm 2 mps 715 mmHg 33%
    04:00 +17°C° 0 mm 2 mps 715 mmHg 33%
    05:00 +18°C° 0 mm 1 mps 716 mmHg 34%
    06:00 +17°C° 0 mm 2 mps 716 mmHg 40%
    07:00 +17°C° 0 mm 3 mps 716 mmHg 46%
    08:00 +17°C° 0 mm 3 mps 716 mmHg 52%
    09:00 +19°C° 0 mm 3 mps 716 mmHg 48%
    10:00 +20°C° 0 mm 3 mps 716 mmHg 45%
    11:00 +21°C° 0 mm 3 mps 716 mmHg 42%
    12:00 +22°C° 0 mm 3 mps 716 mmHg 39%
    13:00 +24°C° 0 mm 3 mps 716 mmHg 36%
    14:00 +24°C° 0 mm 3 mps 716 mmHg 33%
    15:00 +25°C° 0 mm 2 mps 716 mmHg 32%
    16:00 +25°C° 0 mm 2 mps 716 mmHg 31%
    17:00 +25°C° 0 mm 1 mps 716 mmHg 30%
    18:00 +24°C° 0 mm 1 mps 717 mmHg 34%
    19:00 +22°C° 0 mm 1 mps 717 mmHg 37%
    20:00 +21°C° 0 mm 1 mps 717 mmHg 41%
    21:00 +21°C° 0 mm 1 mps 717 mmHg 43%
    22:00 +20°C° 0 mm 1 mps 717 mmHg 46%
    23:00 +20°C° 0 mm 1 mps 717 mmHg 49%

    6 April, Monday

    Time Temperature Precipitation Wind Pressure Humidity
    00:00 +19°C° 0 mm 1 mps 717 mmHg 50%
    01:00 +19°C° 0 mm 1 mps 716 mmHg 51%
    02:00 +18°C° 0 mm 1 mps 716 mmHg 53%
    03:00 +18°C° 0 mm 1 mps 716 mmHg 54%
    04:00 +16°C° 0 mm 2 mps 716 mmHg 55%
    05:00 +16°C° 0 mm 2 mps 716 mmHg 56%
    06:00 +18°C° 0 mm 1 mps 716 mmHg 53%
    07:00 +19°C° 0 mm 1 mps 716 mmHg 50%
    08:00 +20°C° 0 mm 1 mps 716 mmHg 48%
    09:00 +21°C° 0 mm 1 mps 716 mmHg 44%
    10:00 +23°C° 0 mm 1 mps 716 mmHg 40%
    11:00 +24°C° 0 mm 1 mps 716 mmHg 36%
    12:00 +25°C° 0 mm 1 mps 715 mmHg 33%
    13:00 +26°C° 0 mm 1 mps 715 mmHg 29%
    14:00 +27°C° 0 mm 1 mps 715 mmHg 26%
    15:00 +27°C° 0 mm 1 mps 715 mmHg 25%
    16:00 +27°C° 0 mm 1 mps 714 mmHg 25%
    17:00 +27°C° 0 mm 1 mps 714 mmHg 24%
    18:00 +26°C° 0 mm 1 mps 714 mmHg 26%
    19:00 +25°C° 0 mm 1 mps 715 mmHg 28%
    20:00 +21°C° 0 mm 0 mps 715 mmHg 30%
    21:00 +23°C° 0 mm 1 mps 715 mmHg 32%
    22:00 +22°C° 0 mm 1 mps 714 mmHg 33%
    23:00 +21°C° 0 mm 1 mps 714 mmHg 35%

    7 April, Tuesday

    Time Temperature Precipitation Wind Pressure Humidity
    00:00 +21°C° 0 mm 1 mps 714 mmHg 37%
    01:00 +20°C° 0 mm 1 mps 714 mmHg 38%
    02:00 +20°C° 0 mm 1 mps 713 mmHg 40%
    03:00 +19°C° 0 mm 1 mps 713 mmHg 41%
    04:00 +19°C° 0 mm 1 mps 714 mmHg 42%
    05:00 +18°C° 0 mm 1 mps 714 mmHg 43%
    06:00 +19°C° 0 mm 1 mps 714 mmHg 41%
    07:00 +20°C° 0 mm 1 mps 714 mmHg 39%
    08:00 +22°C° 0 mm 1 mps 715 mmHg 37%
    09:00 +23°C° 0 mm 1 mps 715 mmHg 33%
    10:00 +25°C° 0 mm 1 mps 715 mmHg 30%
    11:00 +26°C° 0 mm 1 mps 715 mmHg 27%
    12:00 +27°C° 0 mm 1 mps 714 mmHg 25%
    13:00 +28°C° 0 mm 2 mps 714 mmHg 23%
    14:00 +29°C° 0 mm 2 mps 714 mmHg 22%
    15:00 +29°C° 0 mm 2 mps 714 mmHg 22%
    16:00 +29°C° 0 mm 2 mps 713 mmHg 22%
    17:00 +29°C° 0 mm 2 mps 713 mmHg 22%
    18:00 +26°C° 0 mm 4 mps 713 mmHg 29%
    19:00 +23°C° 0 mm 6 mps 713 mmHg 37%
    20:00 +20°C° 0 mm 8 mps 713 mmHg 44%
    21:00 +18°C° 0 mm 7 mps 713 mmHg 46%
    22:00 +19°C° 0 mm 6 mps 713 mmHg 47%
    23:00 +17°C° 0 mm 5 mps 714 mmHg 48%

    8 April, Wednesday

    Time Temperature Precipitation Wind Pressure Humidity
    00:00 +18°C° 0 mm 4 mps 713 mmHg 50%
    01:00 +17°C° 0 mm 4 mps 713 mmHg 53%
    02:00 +16°C° 0 mm 3 mps 713 mmHg 55%
    03:00 +16°C° 0.2 mm 3 mps 713 mmHg 58%
    04:00 +14°C° 0.2 mm 3 mps 713 mmHg 60%
    05:00 +15°C° 0.2 mm 2 mps 713 mmHg 63%
    06:00 +14°C° 0 mm 3 mps 713 mmHg 62%
    07:00 +13°C° 0 mm 4 mps 714 mmHg 61%
    08:00 +13°C° 0 mm 4 mps 714 mmHg 59%
    09:00 +13°C° 0 mm 5 mps 714 mmHg 57%
    10:00 +12°C° 0 mm 5 mps 714 mmHg 54%
    11:00 +12°C° 0 mm 5 mps 714 mmHg 52%
    12:00 +12°C° 0 mm 4 mps 714 mmHg 50%
    13:00 +12°C° 0 mm 4 mps 714 mmHg 49%
    14:00 +12°C° 0 mm 3 mps 714 mmHg 47%
    15:00 +11°C° 0.1 mm 3 mps 714 mmHg 55%
    16:00 +10°C° 0.1 mm 3 mps 714 mmHg 62%
    17:00 +9°C° 0.1 mm 3 mps 714 mmHg 70%
    18:00 +8°C° 0.4 mm 3 mps 714 mmHg 72%
    19:00 +8°C° 0.4 mm 3 mps 715 mmHg 74%
    20:00 +8°C° 0.4 mm 3 mps 715 mmHg 77%
    21:00 +7°C° 0.4 mm 3 mps 716 mmHg 78%
    22:00 +7°C° 0.4 mm 3 mps 716 mmHg 79%
    23:00 +5°C° 0.4 mm 3 mps 716 mmHg 80%
    Show more